Flag for Germany Weather past 2 weeks in Geislingen an der Steige, Baden-Württemberg, Germany

Now
65 °F

Sprinkles. Overcast.


Feels Like: 65 °F
Forecast: 54 / 70 °F
Wind: 5 mph from West

Location: Stoetten

Current Time: Aug 29, 2014 at 5:09:07 PM

Latest Report: Aug 29, 2014 at 4:00 PM


Visibility: 22 mi

Pressure: 30.02 "Hg

Humidity: 81%

Dew point: 58 °F

Location of Geislingen an der SteigeLocation

Historic Weather in Geislingen an der Steige — Graph

°F

Geislingen an der Steige temperature yesterday

Maximum temperature yesterday: 68 °F (at 6:00 PM)
Minimum temperature yesterday: 51 °F (at 7:00 AM)
Average temperature yesterday: 59 °F

Past Weeks' High & Low Weather Summary

 TemperatureHumidityPressure
High68 °F (Aug 28, 6:00 PM)100% (Aug 16, 9:00 AM)30.19 "Hg (Aug 16, 9:00 AM)
Low44 °F (Aug 24, 3:00 AM)46% (Aug 21, 2:00 PM)29.69 "Hg (Aug 26, 8:00 AM)
Average55 °F80%29.99 "Hg
* Reported Aug 14 4:00 PM — Aug 29 4:00 PM, Geislingen an der Steige, Weather by CustomWeather, © 2014

Note: Actual official high and low records may vary slightly from our data, if they occured in-between our weather recording intervals... More about our weather records

Advertising

Geislingen an der Steige weather history for previous 24 hours

 ConditionsComfort  
Time TempWeatherWind HumidityBarometerVisibility
4:00 PM
Aug 29
65 °FSprinkles. Overcast.5 mph81%30.02 "Hg22 mi
3:00 PM65 °FScattered clouds.5 mph80%30.03 "Hg43 mi
2:00 PM63 °FPartly sunny.5 mph84%30.04 "Hg43 mi
1:00 PM61 °FPartly sunny.5 mph93%30.05 "Hg37 mi
12:00 PM59 °FLow clouds.2 mph94%30.05 "Hg9 mi
11:00 AM56 °FLight rain. Low clouds.3 mph96%30.08 "Hg6 mi
10:00 AM56 °FRain. Overcast.6 mph98%30.08 "Hg6 mi
9:00 AM61 °FOvercast.3 mph86%30.03 "Hg47 mi
8:00 AM58 °FOvercast.2 mph90%30.04 "Hg47 mi
7:00 AM58 °FPartly sunny.5 mph88%30.04 "Hg40 mi
6:00 AM58 °FPassing clouds.5 mph89%30.04 "Hg37 mi
5:00 AM59 °FPassing clouds.3 mph82%30.03 "Hg28 mi
4:00 AM58 °FPassing clouds.3 mph85%30.04 "Hg34 mi
3:00 AM59 °FClear.3 mph84%30.03 "Hg22 mi
2:00 AM60 °FPassing clouds.3 mph81%30.04 "Hg22 mi
1:00 AM61 °FClear.3 mph78%30.04 "Hg25 mi
12:00 AM61 °FOvercast.2 mph78%30.04 "Hg22 mi
11:00 PM
Aug 28
62 °FPassing clouds.3 mph77%30.03 "Hg25 mi
10:00 PM62 °FPassing clouds.3 mph77%30.04 "Hg22 mi
9:00 PM62 °FPassing clouds.2 mph76%30.03 "Hg47 mi
8:00 PM63 °FPartly sunny.3 mph75%30.02 "Hg47 mi
7:00 PM66 °FPartly sunny.2 mph70%30.00 "Hg47 mi
6:00 PM68 °FPartly sunny.2 mph64%29.99 "Hg47 mi
5:00 PM67 °FScattered clouds.1 mph67%30.00 "Hg47 mi
Weather by CustomWeather, © 2014

See weather overviewHow to use our weather pages